Location: Terra Rouge Observatory
(46.0000°N, 62.7500°W)
Time: 18:33:11
(UTC-04:00)

Amateur Radio Satellites - All Passes

Search period start: 24 November 2014 18:03
Search period end: 25 November 2014 18:03
Location: Terra Rouge Observatory, 46.0000°N, 62.7500°W

Satellite Date Start Highest point End Downlink Frequencies (MHz)
Time Altitude Azimuth
STRAND 1 24 Nov 18:08:25 18:12:16 21° 92° (E) 18:16:05 437.568
VERMONT LUNAR 24 Nov 18:09:01 18:12:19 33° 186° (S) 18:15:37 437.305
Cubesat XI-IV 24 Nov 18:12:57 18:18:03 44° 261° (W) 18:23:12 437.490
CUBESAT XI-V 24 Nov 18:17:37 18:21:34 26° 94° (E) 18:25:27 437.345
MOZHAYETS 4 24 Nov 18:18:11 18:22:12 29° 294° (WNW) 18:26:12
PRISM 24 Nov 18:29:24 18:33:41 84° 103° (ESE) 18:37:55 437.425
RS-15 24 Nov 18:31:10 18:41:42 51° 321° (NW) 18:52:24 29.354- 29.394
HO-68 24 Nov 18:43:03 18:48:56 28° 56° (NE) 18:54:49 435.675
CUTE-I 24 Nov 18:56:28 19:00:21 20° 269° (W) 19:04:15 437.470
SEEDS 24 Nov 19:10:55 19:13:32 16° 62° (ENE) 19:16:11 437.485
PCSat 24 Nov 19:13:59 19:18:14 24° 108° (ESE) 19:22:29 145.827
GOMX 1 24 Nov 19:15:07 19:18:06 17° 63° (ENE) 19:20:59 467.674
AIST 1 24 Nov 19:28:26 19:32:30 37° 92° (E) 19:36:35
PHONESAT 2.4 24 Nov 19:29:41 19:32:48 25° 196° (SSW) 19:35:54 2401.200-2431.200
DX 1 24 Nov 19:30:06 19:31:32 11° 57° (ENE) 19:32:57 434.975-435.025
AAUSAT CUBESAT 2 24 Nov 19:30:34 19:33:33 20° 64° (ENE) 19:36:33 437.432
CINEMA 3 24 Nov 19:30:40 19:31:27 10° 59° (ENE) 19:32:14 145.822/145.860
BRITE-PL 24 Nov 19:33:59 19:38:27 34° 69° (ENE) 19:42:38 437.365/2234.400
CANX-2 24 Nov 19:35:17 19:39:05 34° 69° (ENE) 19:42:55 2200.000
GONETS M04 24 Nov 19:41:50 19:50:44 88° 82° (E) 19:59:33
COMPASS 1 24 Nov 19:44:00 19:47:36 29° 68° (ENE) 19:51:14 437.405
DELFI C3 24 Nov 19:45:10 19:46:56 13° 60° (ENE) 19:48:41 145.870
STRAND 1 24 Nov 19:46:48 19:51:47 54° 290° (WNW) 19:56:44 437.568
VERMONT LUNAR 24 Nov 19:47:44 19:50:15 18° 202° (SSW) 19:52:46 437.305
CUBESAT XI-V 24 Nov 19:54:47 19:59:06 37° 292° (WNW) 20:03:21 437.345
BEESAT 3 24 Nov 20:02:54 20:06:14 24° 114° (ESE) 20:09:37 437.485
PRISM 24 Nov 20:07:03 20:08:36 12° 302° (WNW) 20:10:08 437.425
CUTE 1.7 & AOD 2 24 Nov 20:09:42 20:13:53 72° 75° (ENE) 20:18:08 437.475
DOVE 4 24 Nov 20:16:26 20:20:51 47° 72° (ENE) 20:25:02 437.250
BEESAT 2 24 Nov 20:16:42 20:20:19 30° 116° (ESE) 20:23:59 435.950
AISAT 24 Nov 20:17:54 20:19:37 12° 58° (ENE) 20:21:20 437.250
HO-68 24 Nov 20:28:56 20:36:05 69° 256° (WSW) 20:43:18 435.675
UKube-1 24 Nov 20:29:03 20:33:07 39° 69° (ENE) 20:37:11 .
FUNcube-1 24 Nov 20:30:42 20:33:45 20° 64° (ENE) 20:36:46 145.935
Oscar 11 24 Nov 20:41:22 20:45:33 55° 72° (ENE) 20:49:47 145.826/435.025
AIST 2 24 Nov 20:44:13 20:47:54 30° 116° (ESE) 20:51:39 435.215
SEEDS 24 Nov 20:44:52 20:48:58 54° 260° (W) 20:53:07 437.485
RS-15 24 Nov 20:48:12 20:57:23 29° 354° (N) 21:06:46 29.354- 29.394
CUBEBUG 2 24 Nov 20:48:27 20:52:24 39° 70° (ENE) 20:56:19 437.445
GOMX 1 24 Nov 20:51:06 20:55:52 61° 259° (W) 21:00:20 467.674
UWE-3 24 Nov 20:51:57 20:55:50 36° 70° (ENE) 20:59:41 435.000/436.395/437.385
PCSat 24 Nov 20:55:55 21:01:15 58° 307° (NW) 21:06:38 145.827
DX 1 24 Nov 21:02:41 21:07:05 89° 75° (ENE) 21:11:30 434.975-435.025
CINEMA 3 24 Nov 21:03:38 21:08:03 87° 76° (ENE) 21:12:19 145.822/145.860
AAUSAT CUBESAT 2 24 Nov 21:05:00 21:08:57 43° 262° (W) 21:12:58 437.432
AIST 1 24 Nov 21:06:50 21:10:18 22° 290° (WNW) 21:13:48
CANX-2 24 Nov 21:11:41 21:15:06 24° 266° (W) 21:18:33 2200.000
BRITE-PL 24 Nov 21:12:34 21:16:58 30° 264° (W) 21:21:07 437.365/2234.400
DELFI C3 24 Nov 21:17:38 21:21:41 71° 258° (WSW) 21:25:47 145.870
COMPASS 1 24 Nov 21:19:45 21:23:20 27° 265° (W) 21:26:56 437.405
ESTCUBE 1 24 Nov 21:20:28 21:23:42 19° 62° (ENE) 21:26:56 437.505/2401.250
50 SAT 24 Nov 21:23:57 21:27:38 35° 69° (ENE) 21:31:19 437.505
HUMSAT D 24 Nov 21:24:50 21:28:45 43° 71° (ENE) 21:32:39 437.325/437.525
VELOX 1 24 Nov 21:25:56 21:30:15 50° 71° (ENE) 21:34:36 145.980
ZACube-1 24 Nov 21:30:03 21:34:16 80° 75° (ENE) 21:38:27 437.345
GONETS M04 24 Nov 21:40:13 21:46:21 22° 283° (WNW) 21:52:28
BEESAT 3 24 Nov 21:40:21 21:44:16 41° 313° (NW) 21:48:15 437.485
CUTE 1.7 & AOD 2 24 Nov 21:48:58 21:50:21 11° 272° (W) 21:51:43 437.475
AISAT 24 Nov 21:51:05 21:55:35 89° 255° (WSW) 22:00:05 437.250
DUCHIFAT 1 24 Nov 21:52:48 21:53:09 10° 88° (E) 21:53:31 145.980
BEESAT 2 24 Nov 21:54:44 21:58:33 34° 315° (NW) 22:02:25 435.950
DOVE 4 24 Nov 21:55:32 21:58:50 19° 267° (W) 22:02:02 437.250
TIGRISAT 24 Nov 22:01:07 22:04:22 20° 93° (E) 22:07:39 435.000
TISAT 1 24 Nov 22:01:11 22:03:06 13° 59° (ENE) 22:05:00 437.305
FUNcube-1 24 Nov 22:05:51 22:09:51 42° 261° (W) 22:13:50 145.935
UKube-1 24 Nov 22:06:01 22:09:25 22° 266° (W) 22:12:51 .
SPROUT 24 Nov 22:06:23 22:08:17 13° 59° (ENE) 22:10:11 437.525
CUBEBUG 1 24 Nov 22:09:40 22:13:59 52° 71° (ENE) 22:18:19 437.445
NANOSAT C BR1 24 Nov 22:09:53 22:12:35 16° 91° (E) 22:15:16 145.865
UNISAT 6 24 Nov 22:13:33 22:17:19 27° 95° (E) 22:21:09 437.425
QB50P1 24 Nov 22:19:11 22:22:23 21° 93° (E) 22:25:33 145.935-145.965
Oscar 11 24 Nov 22:19:30 22:22:05 16° 270° (W) 22:24:41 145.826/435.025
HO-68 24 Nov 22:22:13 22:25:06 13° 275° (W) 22:27:59 435.675
AIST 2 24 Nov 22:22:30 22:26:27 36° 315° (NW) 22:30:28 435.215
CUBEBUG 2 24 Nov 22:26:03 22:29:17 21° 267° (W) 22:32:28 437.445
UWE-3 24 Nov 22:29:14 22:32:31 22° 266° (W) 22:35:47 435.000/436.395/437.385
DANDE 24 Nov 22:31:24 22:31:40 10° 68° (ENE) 22:31:56 436.750
BUGSAT 1 24 Nov 22:37:21 22:40:47 25° 95° (E) 22:44:10 437.445
ANTELSAT 24 Nov 22:41:45 22:46:05 51° 100° (E) 22:50:30 437.575/2403.000
PCSat 24 Nov 22:42:42 22:45:51 15° 329° (NNW) 22:49:01 145.827
POPSAT HIP 1 24 Nov 22:43:16 22:47:11 36° 97° (E) 22:51:04 437.405
ESTCUBE 1 24 Nov 22:55:46 23:00:12 53° 260° (W) 23:04:41 437.505/2401.250
50 SAT 24 Nov 22:59:57 23:03:03 21° 267° (W) 23:06:10 437.505
HUMSAT D 24 Nov 23:01:55 23:04:47 18° 268° (W) 23:07:39 437.325/437.525
RS-15 24 Nov 23:03:33 23:13:44 39° 28° (NNE) 23:24:16 29.354- 29.394
VELOX 1 24 Nov 23:04:02 23:07:08 18° 268° (W) 23:10:15 145.980
POLYITAN 1 24 Nov 23:15:44 23:20:00 82° 103° (ESE) 23:24:13 437.675
QB50P2 24 Nov 23:18:21 23:22:37 88° 104° (ESE) 23:26:50 145.880/145.840
BEESAT 3 24 Nov 23:22:54 23:23:37 10° 335° (NNW) 23:24:21 437.485
DUCHIFAT 1 24 Nov 23:25:22 23:29:36 80° 285° (WNW) 23:33:48 145.980
TISAT 1 24 Nov 23:34:05 23:38:22 77° 257° (WSW) 23:42:39 437.305
TIGRISAT 24 Nov 23:37:09 23:41:20 45° 289° (WNW) 23:45:35 435.000
SPROUT 24 Nov 23:39:27 23:43:47 79° 257° (WSW) 23:48:08 437.525
AUBIESAT-1 24 Nov 23:41:44 23:45:36 42° 63° (ENE) 23:49:50 437.475
ITUPSAT 1 24 Nov 23:42:43 23:46:33 24° 63° (ENE) 23:50:25 437.325
NANOSAT C BR1 24 Nov 23:44:41 23:48:46 50° 289° (WNW) 23:52:50 145.865
M-CUBED/EXP-1 PRIME 24 Nov 23:45:52 23:49:49 50° 65° (ENE) 23:54:09 437.505
MaSat-1 24 Nov 23:47:22 23:48:27 12° 51° (NE) 23:49:32 437.345
CUBEBUG 1 24 Nov 23:47:42 23:50:41 17° 269° (W) 23:53:40 437.445
ISS 24 Nov 23:49:03 23:51:51 26° 140° (SE) 23:54:40 145.825
UNISAT 6 24 Nov 23:50:12 23:54:09 33° 292° (WNW) 23:58:11 437.425
CUSAT 1 24 Nov 23:51:23 23:55:40 71° 79° (E) 00:01:29 437.405
SWISSCUBE 24 Nov 23:53:42 23:57:58 33° 66° (ENE) 00:02:15 437.505
QB50P1 24 Nov 23:54:30 23:58:27 39° 290° (WNW) 00:02:22 145.935-145.965
DANDE 25 Nov 00:11:09 00:15:18 90° 250° (WSW) 00:20:59 436.750
BUGSAT 1 25 Nov 00:12:42 00:16:19 30° 293° (WNW) 00:19:51 437.445
ANTELSAT 25 Nov 00:19:29 00:22:34 19° 297° (WNW) 00:25:42 437.575/2403.000
POPSAT HIP 1 25 Nov 00:19:35 00:22:56 23° 295° (WNW) 00:26:16 437.405
BEESAT 25 Nov 00:24:34 00:29:15 57° 71° (ENE) 00:33:59 436.000
STARS 25 Nov 00:37:59 00:39:59 13° 59° (ENE) 00:41:59 437.465
POLYITAN 1 25 Nov 00:53:48 00:55:20 12° 301° (WNW) 00:56:51 437.675
QB50P2 25 Nov 00:56:39 00:57:53 11° 302° (WNW) 00:59:07 145.880/145.840
YUBILEINY 25 Nov 01:03:01 01:08:37 19° 75° (ENE) 01:14:12 435.215
KKS-1 25 Nov 01:13:15 01:17:23 38° 69° (ENE) 01:21:31 437.445
RS-15 25 Nov 01:16:20 01:27:34 88° 236° (SW) 01:39:18 29.354- 29.394
AUBIESAT-1 25 Nov 01:17:43 01:20:51 21° 263° (W) 01:24:11 437.475
ITUPSAT 1 25 Nov 01:19:36 01:24:12 45° 261° (W) 01:28:51 437.325
MaSat-1 25 Nov 01:21:14 01:23:02 19° 248° (WSW) 01:24:51 437.345
M-CUBED/EXP-1 PRIME 25 Nov 01:22:29 01:25:15 18° 265° (W) 01:28:12 437.505
ISS 25 Nov 01:25:05 01:28:20 58° 338° (NNW) 01:31:35 145.825
Oscar 19 25 Nov 01:27:38 01:32:38 47° 99° (E) 01:37:36 437.125/150
SWISSCUBE 25 Nov 01:31:30 01:35:48 32° 264° (W) 01:40:08 437.505
CUSAT 1 25 Nov 01:36:14 01:38:41 14° 269° (W) 01:41:27 437.405
BEESAT 25 Nov 02:04:14 02:07:28 18° 269° (W) 02:10:45 436.000
STARS 25 Nov 02:11:27 02:15:52 80° 256° (WSW) 02:20:18 437.465
PCSat 25 Nov 02:16:26 02:18:09 11° 23° (NNE) 02:19:52 145.827
ITAMSAT 1 25 Nov 02:17:48 02:22:53 53° 100° (E) 02:27:55 435.822/435.867
HORYU 2 25 Nov 02:19:48 02:22:03 14° 90° (E) 02:24:18 437.375
AO-7 25 Nov 02:35:56 02:38:39 12° 83° (E) 02:41:22 29.400- 29.500
Gurwin Techsat 1B 25 Nov 02:42:28 02:47:41 53° 100° (E) 02:52:51 435.225
KKS-1 25 Nov 02:50:34 02:54:09 23° 266° (W) 02:57:44 437.445
YUBILEINY 25 Nov 02:55:15 03:04:04 85° 97° (E) 03:12:53 435.215
BEESAT 2 25 Nov 02:57:47 02:59:00 11° 26° (NNE) 03:00:13 435.950
ISS 25 Nov 03:02:27 03:05:24 29° 357° (N) 03:08:21 145.825
Oscar 19 25 Nov 03:07:31 03:11:43 26° 297° (WNW) 03:15:55 437.125/150
SO-50 25 Nov 03:15:08 03:18:22 20° 111° (ESE) 03:21:40 436.795
AIST 2 25 Nov 03:26:31 03:27:58 11° 26° (NNE) 03:29:25 435.215
RS-15 25 Nov 03:30:00 03:38:29 26° 258° (WSW) 03:47:15 29.354- 29.394
MOZHAYETS 4 25 Nov 03:45:16 03:49:35 42° 70° (ENE) 03:53:57
PRISM 25 Nov 03:50:58 03:51:55 11° 57° (ENE) 03:52:52 437.425
HORYU 2 25 Nov 03:54:43 03:59:12 68° 287° (WNW) 04:03:40 437.375
ITAMSAT 1 25 Nov 03:57:59 04:02:02 24° 299° (WNW) 04:06:04 435.822/435.867
PCSat 25 Nov 03:58:13 04:03:14 37° 47° (NE) 04:08:14 145.827
BEESAT 3 25 Nov 04:19:54 04:23:50 37° 46° (NE) 04:27:43 437.485
Gurwin Techsat 1B 25 Nov 04:23:07 04:27:19 24° 298° (WNW) 04:31:30 435.225
AO-7 25 Nov 04:24:52 04:33:10 62° 104° (ESE) 04:41:25 29.400- 29.500
BEESAT 2 25 Nov 04:34:18 04:38:22 45° 48° (NE) 04:42:24 435.950
ISS 25 Nov 04:39:22 04:42:33 43° 18° (NNE) 04:45:43 145.825
JAS-2 25 Nov 04:46:41 04:53:15 36° 93° (E) 04:59:07 435.910
SO-50 25 Nov 04:53:59 04:58:28 59° 311° (NW) 05:03:08 436.795
YUBILEINY 25 Nov 04:55:14 05:02:02 24° 299° (WNW) 05:08:53 435.215
AIST 2 25 Nov 05:03:31 05:07:42 45° 48° (NE) 05:11:49 435.215
PRISM 25 Nov 05:22:33 05:26:46 87° 75° (ENE) 05:31:02 437.425
MOZHAYETS 4 25 Nov 05:23:22 05:26:59 23° 267° (W) 05:30:38
CUBESAT XI-V 25 Nov 05:23:27 05:27:43 35° 68° (ENE) 05:31:59 437.345
STRAND 1 25 Nov 05:26:26 05:31:12 40° 67° (ENE) 05:35:59 437.568
CUTE-I 25 Nov 05:30:10 05:33:59 20° 91° (E) 05:37:46 437.470
AIST 1 25 Nov 05:34:27 05:36:40 14° 65° (ENE) 05:38:51
PCSat 25 Nov 05:41:39 05:46:43 41° 247° (WSW) 05:51:45 145.827
BEESAT 3 25 Nov 05:58:21 06:01:58 28° 244° (WSW) 06:05:31 437.485
O/OREOS (USA 219) 25 Nov 06:10:31 06:14:55 57° 110° (ESE) 06:19:19 437.305
BEESAT 2 25 Nov 06:13:06 06:16:25 23° 246° (WSW) 06:19:42 435.950
ISS 25 Nov 06:16:03 06:19:12 41° 216° (SW) 06:22:20 145.825
AO-7 25 Nov 06:18:10 06:25:34 37° 304° (NW) 06:32:57 29.400- 29.500
Cubesat XI-IV 25 Nov 06:27:25 06:32:43 62° 102° (ESE) 06:37:58 437.490
JAS-2 25 Nov 06:31:32 06:38:28 48° 295° (WNW) 06:44:39 435.910
SO-50 25 Nov 06:37:21 06:40:02 15° 333° (NNW) 06:42:46 436.795
AIST 2 25 Nov 06:42:40 06:46:05 23° 246° (WSW) 06:49:29 435.215
GONETS M04 25 Nov 06:52:21 06:58:26 21° 77° (ENE) 07:04:31
CUBESAT XI-V 25 Nov 07:01:05 07:05:11 29° 265° (W) 07:09:18 437.345
STRAND 1 25 Nov 07:06:02 07:10:29 29° 265° (W) 07:14:57 437.568
CUTE-I 25 Nov 07:09:13 07:14:29 61° 289° (WNW) 07:19:42 437.470
AIST 1 25 Nov 07:10:28 07:14:51 67° 264° (W) 07:19:09
O/OREOS (USA 219) 25 Nov 07:51:27 07:54:42 19° 310° (NW) 07:57:57 437.305
HO-68 25 Nov 07:55:01 08:00:08 21° 90° (E) 08:05:12 435.675
CUTE 1.7 & AOD 2 25 Nov 07:55:22 07:56:25 11° 88° (E) 07:57:28 437.475
Cubesat XI-IV 25 Nov 08:08:24 08:12:22 22° 300° (WNW) 08:16:18 437.490
AO-7 25 Nov 08:14:29 08:15:56 11° 328° (NNW) 08:17:22 29.400- 29.500
JAS-2 25 Nov 08:19:33 08:21:37 11° 317° (NW) 08:23:38 435.910
SEEDS 25 Nov 08:27:49 08:31:06 21° 93° (E) 08:34:21 437.485
POLYITAN 1 25 Nov 08:39:41 08:40:30 11° 58° (ENE) 08:41:18 437.675
QB50P2 25 Nov 08:41:40 08:42:53 11° 58° (ENE) 08:44:06 145.880/145.840
GONETS M04 25 Nov 08:45:12 08:54:01 89° 278° (W) 09:02:57
AAUSAT CUBESAT 2 25 Nov 08:46:29 08:50:00 25° 94° (E) 08:53:29 437.432
DUCHIFAT 1 25 Nov 08:47:41 08:49:30 13° 59° (ENE) 08:51:20 145.980
DX 1 25 Nov 08:50:42 08:52:37 13° 89° (E) 08:54:32 434.975-435.025
GOMX 1 25 Nov 08:50:46 08:54:22 28° 95° (E) 08:58:00 467.674
CUTE-I 25 Nov 08:52:34 08:53:30 10° 308° (NW) 08:54:25 437.470
CANX-2 25 Nov 08:53:51 08:58:02 48° 99° (E) 09:02:11 2200.000
CINEMA 3 25 Nov 08:57:12 08:59:49 16° 91° (E) 09:02:27 145.822/145.860
DELFI C3 25 Nov 08:57:33 08:59:49 14° 90° (E) 09:02:04 145.870
COMPASS 1 25 Nov 09:00:46 09:04:46 39° 98° (E) 09:08:45 437.405
TIGRISAT 25 Nov 09:02:54 09:06:18 24° 65° (ENE) 09:09:42 435.000
NANOSAT C BR1 25 Nov 09:05:36 09:08:34 19° 63° (ENE) 09:11:32 145.865
BRITE-PL 25 Nov 09:14:12 09:18:22 69° 102° (ESE) 09:22:31 437.365/2234.400
QB50P1 25 Nov 09:14:54 09:18:15 23° 65° (ENE) 09:21:36 145.935-145.965
UNISAT 6 25 Nov 09:15:33 09:19:20 32° 68° (ENE) 09:23:08 437.425
ZACube-1 25 Nov 09:18:11 09:20:03 13° 89° (E) 09:21:55 437.345
CUTE 1.7 & AOD 2 25 Nov 09:28:36 09:32:54 79° 285° (WNW) 09:37:12 437.475
BUGSAT 1 25 Nov 09:30:10 09:33:46 27° 67° (ENE) 09:37:21 437.445
POPSAT HIP 1 25 Nov 09:38:50 09:42:48 39° 70° (ENE) 09:46:46 437.405
HO-68 25 Nov 09:41:26 09:48:39 83° 289° (WNW) 09:55:49 435.675
AISAT 25 Nov 09:41:27 09:43:57 15° 90° (E) 09:46:26 437.250
ANTELSAT 25 Nov 09:43:41 09:47:54 62° 73° (ENE) 09:52:08 437.575/2403.000
UKube-1 25 Nov 09:50:23 09:54:38 50° 100° (E) 09:58:50 .
DOVE 4 25 Nov 09:50:32 09:54:42 89° 286° (WNW) 09:58:58 437.250
FUNcube-1 25 Nov 09:52:04 09:55:44 28° 95° (E) 09:59:26 145.935
Oscar 11 25 Nov 10:02:19 10:06:41 81° 103° (ESE) 10:11:02 145.826/435.025
SEEDS 25 Nov 10:03:06 10:07:05 39° 290° (WNW) 10:11:04 437.485
SO-50 25 Nov 10:03:30 10:05:35 13° 23° (NNE) 10:07:40 436.795
POLYITAN 1 25 Nov 10:11:29 10:15:45 86° 76° (ENE) 10:20:02 437.675
CUBEBUG 2 25 Nov 10:13:23 10:17:35 64° 101° (ESE) 10:21:52 437.445
QB50P2 25 Nov 10:13:52 10:18:09 89° 257° (WSW) 10:22:26 145.880/145.840
UWE-3 25 Nov 10:15:32 10:19:43 58° 101° (E) 10:23:57 435.000/436.395/437.385
DUCHIFAT 1 25 Nov 10:20:33 10:24:48 78° 257° (WSW) 10:29:04 145.980
AAUSAT CUBESAT 2 25 Nov 10:21:56 10:25:44 33° 291° (WNW) 10:29:31 437.432
DX 1 25 Nov 10:25:01 10:29:21 69° 287° (WNW) 10:33:40 434.975-435.025
GOMX 1 25 Nov 10:28:58 10:32:30 27° 293° (WNW) 10:36:03 467.674
CANX-2 25 Nov 10:30:39 10:33:38 19° 297° (WNW) 10:36:38 2200.000
DELFI C3 25 Nov 10:31:25 10:35:29 56° 287° (WNW) 10:39:32 145.870
CINEMA 3 25 Nov 10:33:16 10:37:20 51° 288° (WNW) 10:41:30 145.822/145.860
COMPASS 1 25 Nov 10:37:01 10:40:17 22° 295° (WNW) 10:43:33 437.405
50 SAT 25 Nov 10:37:28 10:41:21 43° 99° (E) 10:45:15 437.505
TIGRISAT 25 Nov 10:38:59 10:42:54 35° 263° (W) 10:46:50 435.000
NANOSAT C BR1 25 Nov 10:40:01 10:44:08 47° 261° (W) 10:48:16 145.865
HUMSAT D 25 Nov 10:42:33 10:46:41 60° 101° (E) 10:50:50 437.325/437.525
GONETS M04 25 Nov 10:45:42 10:52:13 22° 301° (WNW) 10:58:49
ESTCUBE 1 25 Nov 10:46:36 10:50:29 27° 95° (E) 10:54:19 437.505/2401.250
QB50P1 25 Nov 10:50:00 10:53:58 37° 262° (W) 10:57:57 145.935-145.965
VELOX 1 25 Nov 10:50:49 10:55:16 73° 103° (ESE) 10:59:40 145.980
UNISAT 6 25 Nov 10:52:35 10:56:10 26° 265° (W) 10:59:47 437.425
ZACube-1 25 Nov 10:52:41 10:56:52 66° 286° (WNW) 11:01:07 437.345
BRITE-PL 25 Nov 10:54:35 10:56:23 13° 300° (WNW) 10:58:10 437.365/2234.400
BUGSAT 1 25 Nov 11:05:24 11:09:11 31° 264° (W) 11:12:59 437.445
YUBILEINY 25 Nov 11:09:23 11:11:25 11° 46° (NE) 11:13:27 435.215
Oscar 19 25 Nov 11:11:00 11:13:31 14° 56° (NE) 11:16:03 437.125/150
POPSAT HIP 1 25 Nov 11:15:35 11:18:51 21° 267° (W) 11:22:08 437.405
AISAT 25 Nov 11:16:38 11:21:01 61° 288° (WNW) 11:25:21 437.250
TISAT 1 25 Nov 11:18:21 11:20:40 14° 90° (E) 11:22:59 437.305
ANTELSAT 25 Nov 11:23:01 11:25:09 14° 270° (W) 11:27:17 437.575/2403.000
SPROUT 25 Nov 11:25:16 11:27:50 15° 90° (E) 11:30:24 437.525
UKube-1 25 Nov 11:27:26 11:30:27 19° 298° (WNW) 11:33:27 .
FUNcube-1 25 Nov 11:28:26 11:32:05 29° 292° (WNW) 11:35:46 145.935
HO-68 25 Nov 11:30:29 11:35:21 20° 309° (NW) 11:40:13 435.675
CUBEBUG 1 25 Nov 11:32:40 11:37:04 76° 103° (ESE) 11:41:24 437.445
Oscar 11 25 Nov 11:40:24 11:42:14 13° 301° (WNW) 11:44:05 145.826/435.025
SO-50 25 Nov 11:42:50 11:47:26 41° 45° (NE) 11:52:03 436.795
CUBEBUG 2 25 Nov 11:51:33 11:53:51 15° 298° (WNW) 11:56:10 437.445
UWE-3 25 Nov 11:53:21 11:55:52 16° 298° (WNW) 11:58:24 435.000/436.395/437.385
ITAMSAT 1 25 Nov 12:01:27 12:04:38 17° 57° (ENE) 12:07:50 435.822/435.867
50 SAT 25 Nov 12:13:33 12:16:24 19° 296° (WNW) 12:19:14 437.505
HUMSAT D 25 Nov 12:19:42 12:22:04 15° 298° (WNW) 12:24:26 437.325/437.525
ESTCUBE 1 25 Nov 12:23:17 12:27:24 34° 292° (WNW) 12:31:29 437.505/2401.250
BEESAT 25 Nov 12:24:35 12:26:31 12° 88° (E) 12:28:26 436.000
Gurwin Techsat 1B 25 Nov 12:28:46 12:32:05 17° 58° (ENE) 12:35:25 435.225
VELOX 1 25 Nov 12:28:58 12:31:18 14° 301° (WNW) 12:33:38 145.980
Oscar 19 25 Nov 12:46:59 12:52:06 86° 75° (ENE) 12:57:15 437.125/150
TISAT 1 25 Nov 12:52:45 12:56:54 57° 288° (WNW) 13:01:00 437.305
AUBIESAT-1 25 Nov 12:56:54 13:01:07 28° 99° (E) 13:05:15 437.475
SPROUT 25 Nov 13:00:05 13:04:17 54° 288° (WNW) 13:08:27 437.525
M-CUBED/EXP-1 PRIME 25 Nov 13:01:25 13:05:52 33° 101° (E) 13:10:15 437.505
YUBILEINY 25 Nov 13:02:34 13:10:58 49° 72° (ENE) 13:19:16 435.215
CUSAT 1 25 Nov 13:08:41 13:11:21 67° 99° (E) 13:13:57 437.405
CUBEBUG 1 25 Nov 13:10:45 13:12:51 13° 301° (WNW) 13:14:57 437.445
ITUPSAT 1 25 Nov 13:17:48 13:22:19 39° 98° (E) 13:26:48 437.325
HORYU 2 25 Nov 13:20:50 13:23:52 18° 62° (ENE) 13:26:54 437.375
SO-50 25 Nov 13:23:34 13:27:56 34° 244° (WSW) 13:32:19 436.795
SWISSCUBE 25 Nov 13:28:56 13:33:41 54° 101° (E) 13:38:21 437.505
DANDE 25 Nov 13:31:12 13:33:56 65° 281° (W) 13:36:32 436.750
AO-7 25 Nov 13:36:15 13:42:47 27° 50° (NE) 13:49:19 29.400- 29.500
ITAMSAT 1 25 Nov 13:38:15 13:43:29 81° 256° (WSW) 13:48:44 435.822/435.867
BEESAT 25 Nov 14:00:10 14:05:00 83° 286° (WNW) 14:09:47 436.000
STARS 25 Nov 14:00:24 14:03:07 16° 91° (E) 14:05:50 437.465
Gurwin Techsat 1B 25 Nov 14:06:06 14:11:25 80° 256° (WSW) 14:16:46 435.225
VERMONT LUNAR 25 Nov 14:18:25 14:19:22 11° 151° (SSE) 14:20:20 437.305
Oscar 19 25 Nov 14:29:55 14:32:08 13° 273° (W) 14:34:22 437.125/150
AUBIESAT-1 25 Nov 14:31:33 14:36:11 42° 297° (WNW) 14:40:45 437.475
M-CUBED/EXP-1 PRIME 25 Nov 14:36:23 14:40:53 36° 298° (WNW) 14:45:21 437.505
KKS-1 25 Nov 14:38:20 14:42:43 56° 101° (E) 14:47:04 437.445
O/OREOS (USA 219) 25 Nov 14:39:15 14:42:46 22° 52° (NE) 14:46:17 437.305
MaSat-1 25 Nov 14:51:51 14:54:09 21° 112° (ESE) 14:56:19 437.345
HORYU 2 25 Nov 14:55:50 15:00:09 53° 260° (W) 15:04:32 437.375
ITUPSAT 1 25 Nov 14:56:01 15:00:04 27° 296° (WNW) 15:04:05 437.325
YUBILEINY 25 Nov 14:59:41 15:07:38 42° 274° (W) 15:15:33 435.215
JAS-2 25 Nov 15:00:39 15:06:49 27° 57° (ENE) 15:13:02 435.910
SWISSCUBE 25 Nov 15:07:39 15:11:10 21° 299° (WNW) 15:14:40 437.505
ITAMSAT 1 25 Nov 15:22:28 15:23:47 11° 274° (W) 15:25:07 435.822/435.867
AO-7 25 Nov 15:26:21 15:34:40 86° 251° (WSW) 15:43:04 29.400- 29.500
STARS 25 Nov 15:35:39 15:39:58 55° 288° (WNW) 15:44:15 437.465
BEESAT 25 Nov 15:40:12 15:42:04 12° 304° (NW) 15:43:56 436.000
PHONESAT 2.4 25 Nov 15:40:35 15:43:29 22° 161° (SSE) 15:46:24 2401.200-2431.200
RS-15 25 Nov 15:43:06 15:53:17 47° 111° (ESE) 16:03:26 29.354- 29.394
Gurwin Techsat 1B 25 Nov 15:50:51 15:52:13 11° 274° (W) 15:53:36 435.225
VERMONT LUNAR 25 Nov 15:54:01 15:57:08 27° 167° (SSE) 16:00:16 437.305
Cubesat XI-IV 25 Nov 16:13:59 16:17:52 21° 59° (ENE) 16:21:44 437.490
KKS-1 25 Nov 16:16:00 16:18:58 18° 298° (WNW) 16:21:55 437.445
O/OREOS (USA 219) 25 Nov 16:18:08 16:22:26 47° 251° (WSW) 16:26:43 437.305
MaSat-1 25 Nov 16:26:34 16:28:40 18° 306° (NW) 16:30:38 437.345
JAS-2 25 Nov 16:43:20 16:51:00 81° 256° (WSW) 16:58:56 435.910
CUTE-I 25 Nov 16:54:08 16:59:08 41° 67° (ENE) 17:04:08 437.470
GONETS M04 25 Nov 16:58:24 17:01:50 13° 48° (NE) 17:05:16
PRISM 25 Nov 17:06:06 17:07:07 11° 88° (E) 17:08:07 437.425
MOZHAYETS 4 25 Nov 17:14:52 17:19:33 74° 102° (ESE) 17:24:12
PHONESAT 2.4 25 Nov 17:18:22 17:21:47 35° 178° (S) 17:25:12 2401.200-2431.200
AO-7 25 Nov 17:23:05 17:28:37 19° 271° (W) 17:34:13 29.400- 29.500
VERMONT LUNAR 25 Nov 17:31:52 17:35:11 34° 184° (S) 17:38:30 437.305
STRAND 1 25 Nov 17:37:49 17:38:15 10° 86° (E) 17:38:42 437.568
Cubesat XI-IV 25 Nov 17:52:08 17:57:28 66° 258° (WSW) 18:02:49 437.490
